Location: Moscow
(38.3171°N, 79.0889°W)
Time: 02:24:19
(UTC+00:00)

Cosmos 1300 Rocket - Pass Details

Date: 07 November 2025
Orbit: 594 x 620 km, 82.5° (Epoch: 08 December)

Event Time Altitude Azimuth Distance (km) Brightness Sun altitude
Rises 22:59:05 0° 169° (S) 2,881 7.0 -10.0°
Reaches altitude 10° 23:01:23 10° 162° (SSE) 1,980 6.1 -10.4°
Maximum altitude 23:05:31 42° 92° (E) 895 3.9 -11.2°
Drops below altitude 10° 23:09:40 10° 22° (NNE) 1,991 5.8 -12.0°
Sets 23:11:59 0° 16° (NNE) 2,898 6.7 -12.5°
